TimeCDT,TemperatureF,Dew PointF,Humidity,Sea Level PressureIn,VisibilityMPH,Wind Direction,Wind SpeedMPH,Gust SpeedMPH,PrecipitationIn,Events,Conditions,WindDirDegrees,DateUTC
4:55 AM,74.8,72.9,94,30.09,10.0,NNE,3.5,-,N/A,,Overcast,20,2013-07-08 09:55:00
5:55 AM,74.1,72.3,94,30.12,10.0,NNE,3.5,-,N/A,,Overcast,30,2013-07-08 10:55:00
6:55 AM,74.7,72.3,92,30.14,10.0,Calm,Calm,-,N/A,,Mostly Cloudy,0,2013-07-08 11:55:00
7:55 AM,74.7,72.3,92,30.14,10.0,Calm,Calm,-,N/A,,Mostly Cloudy,0,2013-07-08 12:55:00
8:58 AM,77.2,73.9,90,30.17,10.0,East,4.6,-,N/A,,Mostly Cloudy,100,2013-07-08 13:58:00
9:58 AM,79.7,74.1,83,30.17,10.0,SE,2.3,-,N/A,,Partly Cloudy,130,2013-07-08 14:58:00
10:58 AM,81.7,74.7,79,30.18,10.0,Variable,3.5,-,N/A,,Scattered Clouds,0,2013-07-08 15:58:00
11:58 AM,83.7,75.2,76,30.17,10.0,South,4.6,-,N/A,,Partly Cloudy,170,2013-07-08 16:58:00
12:58 PM,85.8,75.4,71,30.16,10.0,SSE,9.2,-,N/A,,Clear,160,2013-07-08 17:58:00
1:58 PM,86.5,77.4,74,30.15,10.0,South,11.5,-,N/A,,Scattered Clouds,170,2013-07-08 18:58:00
2:58 PM,82.9,75.4,78,30.15,10.0,South,12.7,-,N/A,,Scattered Clouds,170,2013-07-08 19:58:00
3:52 PM,80.6,73.4,79,30.13,10.0,SE,11.5,-,N/A,Rain-Thunderstorm,Light Rain,140,2013-07-08 20:52:00
3:58 PM,80.8,73.6,79,30.13,10.0,SE,10.4,-,0.00,Rain,Light Rain,130,2013-07-08 20:58:00
4:11 PM,78.8,73.4,83,30.14,10.0,South,5.8,-,N/A,,Clear,170,2013-07-08 21:11:00
4:58 PM,80.1,74.3,82,30.13,10.0,SW,3.5,-,0.01,,Partly Cloudy,220,2013-07-08 21:58:00
5:58 PM,80.1,73.9,81,30.14,10.0,ESE,3.5,-,N/A,,Scattered Clouds,110,2013-07-08 22:58:00
6:58 PM,79.5,74.3,84,30.13,10.0,WSW,1.2,-,N/A,,Overcast,250,2013-07-08 23:58:00
7:58 PM,79.3,74.3,84,30.14,10.0,South,2.3,-,N/A,,Overcast,170,2013-07-09 00:58:00
8:58 PM,78.4,74.7,88,30.14,10.0,SSW,4.6,-,N/A,,Overcast,210,2013-07-09 01:58:00
9:58 PM,78.6,73.8,85,30.17,10.0,SSE,2.3,-,N/A,,Mostly Cloudy,160,2013-07-09 02:58:00
10:58 PM,77.7,73.6,87,30.17,10.0,Calm,Calm,-,N/A,,Mostly Cloudy,0,2013-07-09 03:58:00
11:58 PM,76.5,74.5,94,30.18,10.0,Calm,Calm,-,N/A,,Clear,0,2013-07-09 04:58:00